Sydney, Australia

10:18 AM AEST on April 30, 2017 (GMT +1000)
Kingsford Smith International

Weather History for YSSY - January, 2014

Change the Weather History Date:

Tuesday, January 28, 2014

  Actual Average Record
Temperature  
Mean Temperature 74 °F -  
Max Temperature 82 °F 80 °F 98 °F (1998)
Min Temperature 67 °F 66 °F 62 °F (2015)
Cooling Degree Days 10    
Growing Degree Days 24 (Base 50)    
Moisture  
Dew Point 58 °F    
Average Humidity 52    
Maximum Humidity 73    
Minimum Humidity 27    
Precipitation  
Precipitation 0.00 in 0.15 in - ()
Sea Level Pressure  
Sea Level Pressure 30.09 in    
Wind  
Wind Speed 16 mph ()    
Max Wind Speed 30 mph    
Max Gust Speed 40 mph    
Visibility 12.6 miles    
Events      
Averages and records for this station are not official NWS values.
T = Trace of Precipitation, MM = Missing Value Source: Averaged Metar Reports

Daily Weather History Graph

Daily Weather History Graph

Search for Another Location

Airport or City:

Trip Planner

Search our weather history database for the weather conditions in past years. The results will help you decide how hot, cold, wet, or windy it might be!

Date:

Astronomy

Jan. 28, 2014 Rise Set
Actual Time 6:12 AM AEDT 8:03 PM AEDT
Civil Twilight 5:44 AM AEDT 8:31 PM AEDT
Nautical Twilight 5:11 AM AEDT 9:04 PM AEDT
Astronomical Twilight 4:36 AM AEDT 9:39 PM AEDT
Moon 3:00 AM AEDT (1/28) 5:22 PM AEDT (1/28)
Length of Visible Light 14h 46m
Length of Day
13h 51m
Waning Crescent, 12% of the Moon is Illuminated
Jan 28
Waning Crescent
Jan 31
New
Feb 7
First Quarter
Feb 15
Full
Feb 23
Last Quarter

Hourly Weather History & Observations

Time (AEDT) Temp. Heat Index Dew Point Humidity Pressure Visibility Wind Dir Wind Speed Gust Speed Precip Events Conditions
12:00 AM 72 °F - 60 °F 56% 30.19 in 19 mi NNE 16.1 mph - -   Partly Cloudy
12:00 AM 71.6 °F - 59.0 °F 64% 30.18 in 6.2 mi NNE 16.1 mph - N/A   Partly Cloudy
1:00 AM 71 °F - 58 °F 55% 30.17 in - NNE 15.0 mph - -  
1:00 AM 71.6 °F - 59.0 °F 64% 30.15 in - NNE 15.0 mph - N/A   Clear
1:30 AM 71.6 °F - 57.2 °F 60% 30.15 in - North 13.8 mph - N/A   Clear
2:00 AM 71 °F - 57 °F 52% 30.16 in - North 11.5 mph - -  
2:00 AM 69.8 °F - 57.2 °F 64% 30.15 in - North 11.5 mph - N/A   Clear
2:30 AM 69.8 °F - 57.2 °F 64% 30.12 in - North 10.4 mph - N/A   Clear
3:00 AM 69 °F - 58 °F 59% 30.14 in 19 mi North 10.4 mph - -   Partly Cloudy
3:00 AM 69.8 °F - 57.2 °F 64% 30.12 in - North 10.4 mph - N/A   Clear
3:30 AM 69.8 °F - 57.2 °F 64% 30.12 in - North 8.1 mph - N/A   Clear
4:00 AM 68 °F - 58 °F 63% 30.13 in - NW 6.9 mph - -  
4:00 AM 68.0 °F - 59.0 °F 73% 30.12 in - NW 6.9 mph - N/A   Clear
5:00 AM 69 °F - 58 °F 59% 30.14 in - North 5.8 mph - -  
5:00 AM 68.0 °F - 57.2 °F 68% 30.12 in 6.2 mi North 5.8 mph - N/A   Partly Cloudy
5:30 AM 69.8 °F - 57.2 °F 64% 30.12 in - NNW 5.8 mph - N/A   Clear
6:00 AM 69 °F - 58 °F 59% 30.14 in 16 mi NNW 5.8 mph - -   Haze
6:00 AM 69.8 °F - 57.2 °F 64% 30.12 in - NNW 5.8 mph - N/A   Clear
6:30 AM 69.8 °F - 59.0 °F 68% 30.12 in - North 4.6 mph - N/A   Clear
7:00 AM 71 °F - 58 °F 55% 30.16 in - North 6.9 mph - -  
7:00 AM 71.6 °F - 59.0 °F 64% 30.15 in - North 6.9 mph - N/A   Clear
7:30 AM 73.4 °F - 57.2 °F 57% 30.15 in - North 5.8 mph - N/A   Clear
8:00 AM 74 °F - 58 °F 46% 30.16 in - North 10.4 mph - -  
8:00 AM 73.4 °F - 57.2 °F 57% 30.15 in - North 10.4 mph - N/A   Clear
8:30 AM 75.2 °F - 53.6 °F 47% 30.15 in - North 12.7 mph - N/A   Clear
9:00 AM 78 °F - 51 °F 29% 30.17 in 19 mi NNE 13.8 mph - -   Partly Cloudy
9:00 AM 77.0 °F - 51.8 °F 41% 30.15 in - NNE 13.8 mph - N/A   Clear
9:30 AM 78.8 °F - 51.8 °F 39% 30.15 in 6.2 mi NNE 15.0 mph - N/A   Partly Cloudy
10:00 AM 79 °F - 52 °F 29% 30.16 in - NNE 17.3 mph - -  
10:00 AM 78.8 °F - 51.8 °F 39% 30.15 in 6.2 mi NNE 17.3 mph - N/A   Partly Cloudy
11:00 AM 80 °F - 54 °F 31% 30.16 in - NNE 21.9 mph - -  
11:00 AM 80.6 °F 80.5 °F 55.4 °F 42% 30.15 in 6.2 mi NNE 21.9 mph - N/A   Partly Cloudy
11:30 AM 80.6 °F 80.3 °F 53.6 °F 39% 30.12 in 6.2 mi NE 20.7 mph - N/A   Partly Cloudy
12:00 PM 80 °F - 52 °F 27% 30.14 in 19 mi NE 23.0 mph - -   Partly Cloudy
12:00 PM 80.6 °F - 51.8 °F 37% 30.12 in 6.2 mi NE 23.0 mph - N/A   Partly Cloudy
12:30 PM 80.6 °F - 50.0 °F 34% 30.12 in - NNE 23.0 mph - N/A   Clear
1:00 PM 82 °F - 56 °F 31% 30.12 in - NE 24.2 mph - -  
1:00 PM 82.4 °F 82.0 °F 57.2 °F 42% 30.09 in - NE 24.2 mph - N/A   Clear
1:30 PM 82.4 °F 82.0 °F 57.2 °F 42% 30.09 in - NNE 25.3 mph - N/A   Clear
2:00 PM 82 °F - 57 °F 32% 30.09 in - NE 26.5 mph - -  
2:00 PM 82.4 °F 82.0 °F 57.2 °F 42% 30.09 in - NE 26.5 mph - N/A   Clear
2:30 PM 82.4 °F 82.0 °F 57.2 °F 42% 30.06 in - NE 28.8 mph - N/A   Clear
3:00 PM 82 °F - 58 °F 33% 30.07 in 19 mi NE 28.8 mph - -   Partly Cloudy
3:00 PM 82.4 °F 82.0 °F 57.2 °F 42% 30.06 in - NE 28.8 mph - N/A   Clear
3:30 PM 82.4 °F 82.0 °F 57.2 °F 42% 30.04 in - NE 29.9 mph - N/A   Clear
4:00 PM 82 °F - 58 °F 34% 30.05 in - NE 26.5 mph - -  
4:00 PM 82.4 °F 82.5 °F 59.0 °F 45% 30.04 in - NE 26.5 mph - N/A   Clear
4:30 PM 82.4 °F 82.5 °F 59.0 °F 45% 30.04 in - NE 27.6 mph - N/A   Clear
5:00 PM 80 °F - 60 °F 41% 30.03 in - NE 26.5 mph - -  
5:30 PM 80.6 °F 81.5 °F 60.8 °F 51% 30.01 in - NNE 26.5 mph 38.0 mph N/A   Clear
6:00 PM 80 °F - 60 °F 40% 30.02 in 19 mi NNE 28.8 mph - -   Partly Cloudy
6:00 PM 80.6 °F 81.5 °F 60.8 °F 51% 30.01 in - NNE 28.8 mph 40.3 mph N/A   Clear
6:30 PM 77.0 °F - 60.8 °F 57% 30.01 in - NE 26.5 mph - N/A   Clear
7:00 PM 78 °F - 59 °F 43% 30.02 in - NNE 27.6 mph - -  
7:00 PM 77.0 °F - 59.0 °F 54% 30.01 in - NNE 27.6 mph - N/A   Clear
7:30 PM 75.2 °F - 60.8 °F 61% 30.01 in - NE 26.5 mph - N/A   Clear
7:43 PM 75.2 °F - 62.6 °F 65% 30.01 in - NNE 27.6 mph 39.1 mph N/A   Clear
8:00 PM 75 °F - 62 °F 54% 30.02 in - NNE 26.5 mph - -  
8:00 PM 75.2 °F - 62.6 °F 65% 30.01 in - NNE 26.5 mph 38.0 mph N/A   Clear
8:30 PM 75.2 °F - 60.8 °F 61% 30.01 in - NNE 26.5 mph - N/A   Clear
9:00 PM 74 °F - 60 °F 51% 30.04 in 16 mi NNE 25.3 mph - -   Haze
9:00 PM 75.2 °F - 59.0 °F 57% 30.04 in - NNE 25.3 mph - N/A   Clear
9:07 PM 75.2 °F - 60.8 °F 61% 30.04 in - NNE 23.0 mph 34.5 mph N/A   Clear
9:30 PM 75.2 °F - 60.8 °F 61% 30.04 in - NNE 23.0 mph 34.5 mph N/A   Clear
10:00 PM 74 °F - 61 °F 55% 30.05 in - NNE 24.2 mph - -  
10:00 PM 75.2 °F - 60.8 °F 61% 30.04 in - NNE 24.2 mph - N/A   Clear
10:30 PM 73.4 °F - 60.8 °F 65% 30.04 in - NNE 26.5 mph - N/A   Clear
11:00 PM 74 °F - 62 °F 57% 30.05 in - NNE 20.7 mph - -  
11:00 PM 73.4 °F - 62.6 °F 69% 30.04 in - NNE 20.7 mph 32.2 mph N/A   Clear
11:30 PM 73.4 °F - 62.6 °F 69% 30.04 in - NNE 21.9 mph - N/A   Clear